Regional Weather Roundup
Issued by NWS Green Bay, WI

Home | Current Version | Previous Version | Graphics & Text | Print | Product List | Glossary Off
Versions: 1 2 3 4 5 6 7 8 9 10 11 12 13 14 15 16 17 18 19 20 21 22 23 24 25 26 27 28 29 30 31 32 33 34 35 36 37 38 39 40 41 42 43 44 45 46 47 48 49 50

000
ASUS43 KGRB 300500
RWRGRB

NORTH-CENTRAL AND NORTHEAST WISCONSIN REGIONAL WEATHER ROUNDUP
NATIONAL WEATHER SERVICE GREEN BAY WI
1200 AM CDT FRI SEP 30 2016

WIZ005-009-010>012-018-019-300600-
NORTH CENTRAL WISCONSIN

CITY           SKY/WX    TMP DP  RH WIND       PRES   REMARKS
IRONWOOD       CLOUDY    52  51  97 NE6       30.46S
MANITOWISH WTR NOT AVBL
ARBOR VITAE    NOT AVBL
EAGLE RIVER    NOT AVBL
LAND O LAKES   NOT AVBL
RHINELANDER    CLEAR     50  50 100 CALM      30.43F
PHILLIPS       NOT AVBL
ANTIGO         NOT AVBL
TOMAHAWK       NOT AVBL
MERRILL        NOT AVBL
$$

WIZ013-073-300600-
NORTHEAST WISCONSIN

CITY           SKY/WX    TMP DP  RH WIND       PRES   REMARKS
IRON MOUNTAIN  CLEAR     51  48  89 W6        30.41F
MARINETTE      CLEAR     55  52  89 N8        30.37F
$$

WIZ017-030-035>037-045-300600-
CENTRAL WISCONSIN

CITY           SKY/WX    TMP DP  RH WIND       PRES   REMARKS
MEDFORD        NOT AVBL
WAUSAU         CLEAR     54  48  80 NE6       30.38F
MOSINEE        NOT AVBL
MARSHFIELD     CLEAR     56  50  80 NE9       30.37F
WISC RAPIDS    CLEAR     57  51  80 NE8       30.37F
STEVENS POINT  NOT AVBL
WAUPACA        NOT AVBL
SHAWANO        NOT AVBL
CLINTONVILLE   NOT AVBL
WAUTOMA        MOCLDY    57  52  83 NE9       30.33F
$$

WIZ038-039-048-051-300600-
FOX VALLEY

CITY           SKY/WX    TMP DP  RH WIND       PRES   REMARKS
NWS GREEN BAY  PTCLDY    58  57  97 N13       30.33F
APPLETON       NOT AVBL
OSHKOSH        PTCLDY    60  54  80 NE12      30.31F
FOND DU LAC    MOCLDY    60  56  86 NE9       30.31F
$$

WIZ022-050-052-300600-
EAST CENTRAL WISCONSIN

CITY           SKY/WX    TMP DP  RH WIND       PRES   REMARKS
EPHRAIM        NOT AVBL
WASHINGTON ISL NOT AVBL
STURGEON BAY   CLEAR     58  56  93 N7        30.36F
MANITOWOC      NOT AVBL
SHEBOYGAN      CLOUDY    61  54  77 NE15      30.30F
$$

LMZ563-521-522-541>543-300600-
LAKESHORE

STATION/POSITION TIME  TEMP    WIND        PRES    VSBY  WAVE
                       AIR SEA DIR/SP/G                  HT/PER
                 (UTC) (F)     (DEG/KT/KT) (MB)    (MI)  (FT/S)
SHEBOYGAN LKSHOR 0400   61      40/ 14/ 15 1025.8F
KEWAUNEE LKSHORE 0400   62      50/  9/ 14 1026.7F
NORTHPORT PIER   0400   62     360/ 11/ 13 1028.1F
N MID LAKE BUOY  0350   65 65   50/ 16/ 19 1027.6F         3/ 5
S GREEN BAY BUOY 0400   61 63   30/ 17/ 19 1027.5S
CHAMBERS ISLAND  0400   60     350/ 17/ 20 1028.1S
MENOMINEE LKSHOR 0400   58     360/ 15/ 16 1027.6F
$$



USA.gov is the U.S. government's official web portal to all federal, state and local government web resources and services.